Flag for South Korea Weather past 2 weeks in Daegu, South Korea

Now
32 °F

Clear.


Feels Like: 24 °F
Forecast: 19 / 47 °F
Wind: 9 mph from Northwest

Location: Taegu Ab

Current Time: Dec 22, 2014 at 10:37:55 PM

Latest Report: Dec 22, 2014 at 10:00 PM


Visibility: 10 mi

Pressure: 30.27 "Hg

Humidity: 60%

Dew point: 19 °F

Location of DaeguLocation

Historic Weather in Daegu — Graph

°F

Daegu temperature yesterday

Maximum temperature yesterday: 36 °F (at 4:00 PM)
Minimum temperature yesterday: 23 °F (at 5:00 AM)
Average temperature yesterday: 29 °F

Past Weeks' High & Low Weather Summary

 TemperatureHumidityPressure
High50 °F (Dec 10, 3:00 PM)93% (Dec 8, 6:02 AM)30.57 "Hg (Dec 8, 6:02 AM)
Low16 °F (Dec 19, 4:00 AM)14% (Dec 13, 2:00 PM)29.92 "Hg (Dec 16, 5:00 AM)
Average33 °F51%30.25 "Hg
* Reported Dec 7 9:00 PM — Dec 22 9:00 PM, Daegu, Weather by CustomWeather, © 2014

Note: Actual official high and low records may vary slightly from our data, if they occured in-between our weather recording intervals... More about our weather records

Advertising

Daegu weather history for previous 24 hours

 ConditionsComfort  
Time TempWeatherWind HumidityBarometerVisibility
9:00 PM
Dec 22
32 °FClear.8 mph64%30.24 "Hg10 mi
8:00 PM36 °FPassing clouds.12 mph52%30.24 "HgN/A
7:00 PM37 °FPassing clouds.9 mph52%30.21 "HgN/A
6:00 PM37 °FPassing clouds.17 mph52%30.21 "HgN/A
5:00 PM37 °FPartly sunny.16 mph60%30.18 "HgN/A
4:00 PM39 °FPartly sunny.14 mph52%30.15 "HgN/A
3:00 PM39 °FPartly sunny.15 mph48%30.12 "HgN/A
2:00 PM39 °FPartly sunny.13 mph45%30.12 "HgN/A
1:00 PM37 °FPartly sunny.8 mph45%30.15 "HgN/A
12:00 PM36 °FPartly sunny.8 mph48%30.18 "HgN/A
11:00 AM32 °FScattered clouds.6 mph51%30.21 "HgN/A
10:00 AM28 °FPartly sunny.6 mph55%30.24 "HgN/A
9:00 AM25 °FPartly sunny.1 mph63%30.24 "HgN/A
8:00 AM21 °FSunny.1 mph68%30.24 "Hg10 mi
7:00 AM21 °FClear.5 mph68%30.21 "Hg10 mi
6:00 AM25 °FClear.7 mph59%30.21 "Hg10 mi
4:00 AM27 °FClear.10 mph54%30.21 "HgN/A
3:00 AM27 °FClear.8 mph59%30.21 "HgN/A
2:00 AM27 °FClear.8 mph64%30.20 "HgN/A
10:00 PM
Dec 21
28 °FPassing clouds.13 mph74%30.15 "HgN/A
Weather by CustomWeather, © 2014

See weather overviewHow to use our weather pages